W7KKE-3 Weather Reports


time (UTC)temp
C
wind
direction
speed
KPH
gust
KPH
rain 1hr
cm
rain 24hr
cm
rain mn
cm
humidity
%
barometer
mb
20210723162705 15 319 0.0 3.2 0.00 0.00 0.00 72 1025.6
20210723162205 15 0 0.0 0.0 0.00 0.00 0.00 71 1025.6
20210723161706 15 0 0.0 0.0 0.00 0.00 0.00 73 1025.5
20210723160705 13 0 0.0 0.0 0.00 0.00 0.00 74 1025.6
20210723160208 13 0 0.0 0.0 0.00 0.00 0.00 74 1025.7
20210723155705 13 0 0.0 0.0 0.00 0.00 0.00 77 1025.6
20210723155205 12 0 0.0 0.0 0.00 0.00 0.00 77 1025.6
20210723154707 12 0 0.0 0.0 0.00 0.00 0.00 79 1025.5
20210723154205 12 0 0.0 0.0 0.00 0.00 0.00 77 1025.5
20210723153704 12 0 0.0 0.0 0.00 0.00 0.00 77 1025.6
20210723153205 11 0 0.0 0.0 0.00 0.00 0.00 77 1025.6
20210723152704 11 0 0.0 0.0 0.00 0.00 0.00 77 1025.5
20210723152204 11 0 0.0 0.0 0.00 0.00 0.00 77 1025.5
20210723151704 11 0 0.0 0.0 0.00 0.00 0.00 77 1025.5
20210723151204 11 0 0.0 0.0 0.00 0.00 0.00 77 1025.5
20210723150704 11 0 0.0 0.0 0.00 0.00 0.00 76 1025.5
20210723150205 11 0 0.0 0.0 0.00 0.00 0.00 76 1025.5
20210723145704 11 0 0.0 0.0 0.00 0.00 0.00 76 1025.5
20210723145204 11 0 0.0 0.0 0.00 0.00 0.00 76 1025.5
20210723144706 11 0 0.0 0.0 0.00 0.00 0.00 76 1025.4
20210723144204 11 0 0.0 0.0 0.00 0.00 0.00 76 1025.3
20210723143704 11 0 0.0 0.0 0.00 0.00 0.00 76 1025.3
20210723143205 11 0 0.0 0.0 0.00 0.00 0.00 76 1025.3
20210723142704 11 0 0.0 0.0 0.00 0.00 0.00 76 1025.3
20210723142204 11 0 0.0 0.0 0.00 0.00 0.00 76 1025.3
20210723141704 11 0 0.0 0.0 0.00 0.00 0.00 77 1025.4
20210723141204 11 0 0.0 0.0 0.00 0.00 0.00 76 1025.2
20210723140704 11 0 0.0 0.0 0.00 0.00 0.00 76 1025.2
20210723140205 11 0 0.0 0.0 0.00 0.00 0.00 74 1025.2
20210723135704 11 0 0.0 4.8 0.00 0.00 0.00 74 1025.1
20210723135204 11 0 0.0 4.8 0.00 0.00 0.00 74 1025.1
20210723134704 11 148 0.0 4.8 0.00 0.00 0.00 74 1025.0
20210723134204 11 0 0.0 0.0 0.00 0.00 0.00 75 1025.0
20210723133704 11 0 0.0 0.0 0.00 0.00 0.00 74 1025.0
20210723133205 11 102 0.0 6.4 0.00 0.00 0.00 75 1024.9
20210723132704 11 0 0.0 6.4 0.00 0.00 0.00 75 1024.9
20210723132204 11 141 0.0 6.4 0.00 0.00 0.00 74 1024.9
20210723131704 11 134 0.0 8.0 0.00 0.00 0.00 76 1024.8
20210723131204 11 140 1.6 8.0 0.00 0.00 0.00 74 1024.8
20210723130704 11 145 3.2 8.0 0.00 0.00 0.00 74 1024.8
20210723130205 11 137 4.8 6.4 0.00 0.00 0.00 74 1024.8
20210723125704 11 151 3.2 8.0 0.00 0.00 0.00 74 1024.7
20210723125204 11 140 3.2 8.0 0.00 0.00 0.00 74 1024.7
20210723124704 11 142 3.2 8.0 0.00 0.00 0.00 75 1024.7
20210723124204 11 156 6.4 6.4 0.00 0.00 0.00 74 1024.7
20210723123704 11 141 1.6 6.4 0.00 0.00 0.00 74 1024.7
20210723123205 11 147 1.6 8.0 0.00 0.00 0.00 74 1024.6
20210723122704 11 148 3.2 8.0 0.00 0.00 0.00 74 1024.7
20210723122204 11 135 1.6 8.0 0.00 0.00 0.00 74 1024.7
20210723121704 11 134 4.8 6.4 0.00 0.00 0.00 74 1024.6
20210723121204 11 133 1.6 6.4 0.00 0.00 0.00 74 1024.5
20210723120704 11 141 1.6 6.4 0.00 0.00 0.00 74 1024.5
20210723120205 11 0 1.6 4.8 0.00 0.00 0.00 74 1024.5
20210723115704 11 137 0.0 4.8 0.00 0.00 0.00 74 1024.5
20210723115204 11 0 1.6 1.6 0.00 0.00 0.00 74 1024.5
20210723114704 11 0 0.0 0.0 0.00 0.00 0.00 75 1024.5
20210723114205 11 0 0.0 0.0 0.00 0.00 0.00 74 1024.6
20210723113704 11 0 0.0 0.0 0.00 0.00 0.00 74 1024.5
20210723113207 11 0 0.0 3.2 0.00 0.00 0.00 74 1024.5
20210723112704 11 0 0.0 3.2 0.00 0.00 0.00 74 1024.4
20210723112205 11 145 0.0 3.2 0.00 0.00 0.00 73 1024.3
20210723111707 11 144 0.0 3.2 0.00 0.00 0.00 73 1024.2
20210723111204 11 149 0.0 4.8 0.00 0.00 0.00 74 1024.4
20210723110704 11 0 0.0 4.8 0.00 0.00 0.00 73 1024.5
20210723110205 11 135 0.0 4.8 0.00 0.00 0.00 73 1024.6
20210723105704 11 131 3.2 4.8 0.00 0.00 0.00 74 1024.6
20210723105204 11 148 0.0 4.8 0.00 0.00 0.00 73 1024.6
20210723104704 11 148 3.2 8.0 0.00 0.00 0.00 72 1024.6
20210723104204 11 133 4.8 8.0 0.00 0.00 0.00 73 1024.6
20210723103704 11 141 0.0 8.0 0.00 0.00 0.00 72 1024.6
20210723103205 11 141 0.0 6.4 0.00 0.00 0.00 72 1024.6
20210723102704 11 137 1.6 6.4 0.00 0.00 0.00 73 1024.6
20210723102204 11 141 0.0 9.7 0.00 0.00 0.00 71 1024.5
20210723101704 11 133 0.0 9.7 0.00 0.00 0.00 73 1024.5
20210723101204 11 131 0.0 9.7 0.00 0.00 0.00 73 1024.4
20210723100704 11 140 0.0 6.4 0.00 0.00 0.00 72 1024.4
20210723100205 11 141 0.0 4.8 0.00 0.00 0.00 71 1024.3
20210723095704 11 137 1.6 8.0 0.00 0.00 0.00 74 1024.3
20210723095204 12 135 1.6 8.0 0.00 0.00 0.00 74 1024.3
20210723094704 12 147 1.6 8.0 0.00 0.00 0.00 71 1024.3
20210723094205 12 138 4.8 8.0 0.00 0.00 0.00 71 1024.3
20210723093705 12 152 3.2 8.0 0.00 0.00 0.00 71 1024.3
20210723093205 12 135 3.2 8.0 0.00 0.00 0.00 71 1024.3
20210723092704 12 142 1.6 8.0 0.00 0.00 0.00 72 1024.2
20210723092205 12 128 0.0 6.4 0.00 0.00 0.00 71 1024.3
20210723091707 12 63 0.0 6.4 0.00 0.00 0.00 71 1024.3
20210723091205 12 131 0.0 4.8 0.00 0.00 0.00 71 1024.2
20210723090704 12 0 0.0 4.8 0.00 0.00 0.00 71 1024.2
20210723090205 12 15 0.0 4.8 0.00 0.00 0.00 70 1024.2
20210723085704 12 0 1.6 6.4 0.00 0.00 0.00 71 1024.2
20210723085204 12 46 0.0 6.4 0.00 0.00 0.00 70 1024.1
20210723084704 12 37 0.0 6.4 0.00 0.00 0.00 68 1024.1
20210723084204 12 0 0.0 0.0 0.00 0.00 0.00 68 1024.1
20210723083704 12 0 0.0 0.0 0.00 0.00 0.00 68 1024.1
20210723083205 12 0 0.0 0.0 0.00 0.00 0.00 69 1024.2
20210723082704 12 0 0.0 0.0 0.00 0.00 0.00 68 1024.1
20210723082204 12 172 0.0 6.4 0.00 0.00 0.00 69 1024.0
20210723081704 12 121 0.0 6.4 0.00 0.00 0.00 70 1023.9
20210723081204 12 148 0.0 6.4 0.00 0.00 0.00 69 1023.9
20210723080704 12 0 3.2 6.4 0.00 0.00 0.00 68 1023.9
20210723080205 13 148 0.0 6.4 0.00 0.00 0.00 69 1023.9
20210723075704 13 0 0.0 0.0 0.00 0.00 0.00 68 1023.9
20210723075204 13 0 0.0 0.0 0.00 0.00 0.00 68 1023.9
20210723074706 13 0 0.0 0.0 0.00 0.00 0.00 68 1023.9
20210723074205 13 0 0.0 0.0 0.00 0.00 0.00 68 1023.9
20210723073704 13 0 0.0 11.3 0.00 0.00 0.00 68 1023.9
20210723073204 13 28 0.0 11.3 0.00 0.00 0.00 68 1024.0
20210723072704 13 7 0.0 11.3 0.00 0.00 0.00 69 1024.0
20210723072206 13 86 3.2 8.0 0.00 0.00 0.00 68 1024.0
20210723071704 13 0 0.0 8.0 0.00 0.00 0.00 68 1024.0
20210723071205 13 170 0.0 8.0 0.00 0.00 0.00 68 1024.0
20210723070704 13 0 0.0 0.0 0.00 0.00 0.00 68 1024.0
20210723070205 13 0 0.0 4.8 0.00 0.00 0.00 68 1024.0
20210723065704 13 19 0.0 4.8 0.00 0.00 0.00 68 1024.0
20210723065204 13 147 0.0 4.8 0.00 0.00 0.00 68 1024.0
20210723064706 13 137 1.6 3.2 0.00 0.00 0.00 68 1024.0
20210723064204 13 137 0.0 0.0 0.00 0.00 0.00 68 1024.0
20210723063703 13 1 0.0 6.4 0.00 0.00 0.00 68 1024.0
20210723063204 13 140 0.0 6.4 0.00 0.00 0.00 68 1024.0
20210723062704 13 176 0.0 6.4 0.00 0.00 0.00 68 1024.0
20210723062203 14 352 0.0 4.8 0.00 0.00 0.00 68 1024.0
20210723061704 14 7 0.0 22.5 0.00 0.00 0.00 69 1024.0
20210723061203 14 42 1.6 22.5 0.00 0.00 0.00 68 1024.1
20210723060703 14 340 1.6 22.5 0.00 0.00 0.00 68 1024.1
20210723060204 14 19 0.0 16.1 0.00 0.00 0.00 68 1024.1
20210723055704 14 25 0.0 16.1 0.00 0.00 0.00 68 1024.0
20210723055203 14 352 1.6 16.1 0.00 0.00 0.00 68 1023.9
20210723054704 14 357 1.6 9.7 0.00 0.00 0.00 68 1023.8
20210723054203 14 16 0.0 9.7 0.00 0.00 0.00 68 1023.9
20210723053703 14 336 0.0 17.7 0.00 0.00 0.00 68 1023.9
20210723053204 14 355 3.2 17.7 0.00 0.00 0.00 68 1023.8
20210723052703 14 11 4.8 17.7 0.00 0.00 0.00 68 1023.6
20210723052203 14 23 8.0 16.1 0.00 0.00 0.00 67 1023.6
20210723051704 14 0 9.7 14.5 0.00 0.00 0.00 68 1023.6
20210723051203 14 357 8.0 14.5 0.00 0.00 0.00 65 1023.6
20210723050703 14 40 4.8 14.5 0.00 0.00 0.00 65 1023.5
20210723050204 14 8 3.2 14.5 0.00 0.00 0.00 65 1023.4
20210723045703 14 12 1.6 14.5 0.00 0.00 0.00 65 1023.3
20210723045203 14 21 3.2 12.9 0.00 0.00 0.00 65 1023.2
20210723044704 14 7 0.0 12.9 0.00 0.00 0.00 65 1023.2
20210723044203 15 2 0.0 12.9 0.00 0.00 0.00 65 1023.1
20210723043703 15 51 0.0 12.9 0.00 0.00 0.00 65 1023.0
20210723043205 15 26 1.6 14.5 0.00 0.00 0.00 63 1023.0
20210723042703 15 1 0.0 14.5 0.00 0.00 0.00 64 1022.9
20210723042203 15 29 0.0 14.5 0.00 0.00 0.00 64 1022.8
20210723041704 15 341 3.2 11.3 0.00 0.00 0.00 62 1022.7
20210723041203 15 0 1.6 11.3 0.00 0.00 0.00 63 1022.7
20210723040703 15 8 0.0 11.3 0.00 0.00 0.00 63 1022.6
20210723040204 15 1 0.0 9.7 0.00 0.00 0.00 61 1022.6
20210723035703 15 16 0.0 16.1 0.00 0.00 0.00 61 1022.5
20210723035203 15 16 8.0 16.1 0.00 0.00 0.00 61 1022.5
20210723034704 15 350 4.8 16.1 0.00 0.00 0.00 62 1022.6
20210723034203 15 5 6.4 19.3 0.00 0.00 0.00 61 1022.7
20210723033703 16 348 11.3 19.3 0.00 0.00 0.00 61 1022.7
20210723033204 16 32 9.7 19.3 0.00 0.00 0.00 61 1022.6
20210723032703 16 22 9.7 24.1 0.00 0.00 0.00 61 1022.6
20210723032203 16 16 12.9 24.1 0.00 0.00 0.00 62 1022.4
20210723031704 16 19 12.9 24.1 0.00 0.00 0.00 61 1022.5
20210723031203 16 30 14.5 20.9 0.00 0.00 0.00 61 1022.5
20210723030703 16 16 11.3 27.4 0.00 0.00 0.00 61 1022.5
20210723030204 16 7 14.5 27.4 0.00 0.00 0.00 60 1022.4
20210723025703 16 351 12.9 27.4 0.00 0.00 0.00 61 1022.4
20210723025203 16 8 11.3 25.7 0.00 0.00 0.00 59 1022.3
20210723024706 17 1 11.3 25.7 0.00 0.00 0.00 58 1022.4
20210723024205 17 7 14.5 25.7 0.00 0.00 0.00 58 1022.3
20210723023703 17 4 14.5 24.1 0.00 0.00 0.00 58 1022.2
20210723023204 17 352 12.9 20.9 0.00 0.00 0.00 58 1022.3
20210723022703 17 7 12.9 29.0 0.00 0.00 0.00 55 1022.3
20210723022203 17 347 9.7 29.0 0.00 0.00 0.00 56 1022.3
20210723021704 17 309 11.3 29.0 0.00 0.00 0.00 55 1022.2
20210723021203 17 18 11.3 29.0 0.00 0.00 0.00 55 1022.3
20210723020703 17 15 14.5 29.0 0.00 0.00 0.00 55 1022.3
20210723020204 17 18 12.9 29.0 0.00 0.00 0.00 55 1022.3
20210723015703 17 352 14.5 25.7 0.00 0.00 0.00 55 1022.3
20210723015203 17 0 12.9 25.7 0.00 0.00 0.00 55 1022.3
20210723014704 17 347 14.5 25.7 0.00 0.00 0.00 55 1022.2
20210723014203 17 2 17.7 27.4 0.00 0.00 0.00 55 1022.3
20210723013703 17 348 12.9 27.4 0.00 0.00 0.00 55 1022.3
20210723013204 17 7 12.9 27.4 0.00 0.00 0.00 57 1022.2
20210723012705 17 2 17.7 25.7 0.00 0.00 0.00 58 1022.2
20210723012203 17 9 14.5 32.2 0.00 0.00 0.00 58 1022.3
20210723011704 17 2 16.1 32.2 0.00 0.00 0.00 58 1022.3
20210723011203 17 317 17.7 32.2 0.00 0.00 0.00 58 1022.2
20210723010704 17 39 20.9 37.0 0.00 0.00 0.00 60 1022.3
20210723005703 17 344 16.1 37.0 0.00 0.00 0.00 58 1022.4
20210723005203 17 16 20.9 38.6 0.00 0.00 0.00 55 1022.4
20210723004704 17 14 19.3 38.6 0.00 0.00 0.00 55 1022.5
20210723004203 17 0 17.7 38.6 0.00 0.00 0.00 56 1022.3
20210723003703 17 12 22.5 38.6 0.00 0.00 0.00 56 1022.3
20210723003204 17 4 19.3 38.6 0.00 0.00 0.00 56 1022.3
20210723002703 17 344 20.9 33.8 0.00 0.00 0.00 57 1022.4
20210723002203 18 5 19.3 30.6 0.00 0.00 0.00 57 1022.4
20210723001704 18 11 19.3 30.6 0.00 0.00 0.00 55 1022.3
20210723001203 18 5 19.3 35.4 0.00 0.00 0.00 56 1022.4
20210723000703 18 322 14.5 35.4 0.00 0.00 0.00 58 1022.4
20210723000204 18 4 20.9 35.4 0.00 0.00 0.00 55 1022.5
20210722235703 18 7 20.9 35.4 0.00 0.00 0.00 58 1022.5
20210722235204 18 344 20.9 35.4 0.00 0.00 0.00 58 1022.6
20210722234704 18 21 19.3 35.4 0.00 0.00 0.00 58 1022.6
20210722234203 18 5 22.5 35.4 0.00 0.00 0.00 58 1022.6
20210722233703 18 357 20.9 35.4 0.00 0.00 0.00 58 1022.7
20210722233204 18 343 20.9 35.4 0.00 0.00 0.00 56 1022.8
20210722232703 18 16 22.5 35.4 0.00 0.00 0.00 55 1022.7
20210722232203 18 7 24.1 35.4 0.00 0.00 0.00 55 1022.7
20210722231704 18 8 20.9 38.6 0.00 0.00 0.00 55 1022.7
20210722231203 18 343 22.5 38.6 0.00 0.00 0.00 55 1022.6
20210722230703 18 5 20.9 38.6 0.00 0.00 0.00 54 1022.7
20210722230204 18 8 17.7 37.0 0.00 0.00 0.00 55 1022.6
20210722225703 18 0 20.9 37.0 0.00 0.00 0.00 52 1022.6
20210722225203 18 30 22.5 38.6 0.00 0.00 0.00 50 1022.6
20210722224704 18 347 19.3 38.6 0.00 0.00 0.00 48 1022.6
20210722224203 19 7 19.3 38.6 0.00 0.00 0.00 52 1022.6
20210722223703 19 345 19.3 35.4 0.00 0.00 0.00 52 1022.5
20210722223204 19 345 20.9 33.8 0.00 0.00 0.00 52 1022.6
20210722222703 19 316 19.3 33.8 0.00 0.00 0.00 52 1022.5
20210722222203 19 336 19.3 33.8 0.00 0.00 0.00 52 1022.6
20210722221703 18 11 19.3 40.2 0.00 0.00 0.00 52 1022.6
20210722221203 18 330 20.9 40.2 0.00 0.00 0.00 52 1022.6
20210722220703 18 343 19.3 40.2 0.00 0.00 0.00 54 1022.7
20210722220204 18 347 22.5 37.0 0.00 0.00 0.00 55 1022.7
20210722215703 18 19 24.1 38.6 0.00 0.00 0.00 54 1022.7
20210722215203 18 326 20.9 38.6 0.00 0.00 0.00 55 1022.6
20210722214703 18 331 22.5 38.6 0.00 0.00 0.00 55 1022.6
20210722214203 18 0 20.9 35.4 0.00 0.00 0.00 56 1022.6
20210722213703 18 343 20.9 35.4 0.00 0.00 0.00 55 1022.7
20210722213204 18 341 19.3 38.6 0.00 0.00 0.00 57 1022.7
20210722212703 18 341 19.3 38.6 0.00 0.00 0.00 55 1022.7
20210722212203 19 9 24.1 38.6 0.00 0.00 0.00 57 1022.8
20210722211703 19 338 19.3 33.8 0.00 0.00 0.00 55 1022.7
20210722211203 19 8 19.3 33.8 0.00 0.00 0.00 55 1022.7
20210722210703 19 5 20.9 32.2 0.00 0.00 0.00 55 1022.7
20210722210204 19 345 19.3 32.2 0.00 0.00 0.00 55 1022.7
20210722205703 19 340 19.3 32.2 0.00 0.00 0.00 53 1022.7
20210722205203 19 12 17.7 35.4 0.00 0.00 0.00 55 1022.7
20210722204703 19 345 16.1 35.4 0.00 0.00 0.00 53 1022.7
20210722204203 19 345 17.7 35.4 0.00 0.00 0.00 52 1022.7
20210722203703 19 352 16.1 32.2 0.00 0.00 0.00 55 1022.8
20210722203204 19 7 17.7 29.0 0.00 0.00 0.00 55 1022.8
20210722202703 19 5 20.9 35.4 0.00 0.00 0.00 55 1022.9
20210722202203 19 2 19.3 35.4 0.00 0.00 0.00 55 1022.9
20210722201703 19 340 19.3 35.4 0.00 0.00 0.00 56 1022.9
20210722201203 19 19 20.9 35.4 0.00 0.00 0.00 55 1022.9
20210722200703 19 320 20.9 30.6 0.00 0.00 0.00 55 1022.9
20210722200204 19 344 17.7 29.0 0.00 0.00 0.00 55 1022.9
20210722195703 20 341 19.3 33.8 0.00 0.00 0.00 55 1022.8
20210722195203 20 8 20.9 33.8 0.00 0.00 0.00 55 1022.8
20210722194703 20 5 19.3 33.8 0.00 0.00 0.00 53 1022.9
20210722194203 20 53 17.7 30.6 0.00 0.00 0.00 55 1022.8
20210722193703 20 9 20.9 30.6 0.00 0.00 0.00 55 1022.8
20210722193204 20 0 19.3 27.4 0.00 0.00 0.00 55 1022.7
20210722192703 20 354 17.7 27.4 0.00 0.00 0.00 55 1022.8
20210722192203 20 341 20.9 25.7 0.00 0.00 0.00 55 1022.8
20210722191703 20 336 16.1 30.6 0.00 0.00 0.00 55 1022.7
20210722191203 20 340 16.1 30.6 0.00 0.00 0.00 55 1022.7
20210722190704 20 5 14.5 30.6 0.00 0.00 0.00 56 1022.8
20210722190204 19 327 19.3 30.6 0.00 0.00 0.00 58 1022.7
20210722185703 19 8 14.5 30.6 0.00 0.00 0.00 58 1022.7
20210722185203 19 5 14.5 30.6 0.00 0.00 0.00 58 1022.8
20210722184703 18 7 20.9 29.0 0.00 0.00 0.00 58 1022.8
20210722184203 18 8 16.1 29.0 0.00 0.00 0.00 60 1022.8
20210722183703 18 5 17.7 29.0 0.00 0.00 0.00 59 1022.7
20210722183204 18 7 17.7 30.6 0.00 0.00 0.00 58 1022.7
20210722182203 18 9 17.7 30.6 0.00 0.00 0.00 58 1022.6
20210722181703 18 4 16.1 27.4 0.00 0.00 0.00 58 1022.6
20210722181203 18 329 14.5 25.7 0.00 0.00 0.00 58 1022.6
20210722180703 18 345 17.7 25.7 0.00 0.00 0.00 58 1022.6
20210722180204 18 323 14.5 25.7 0.00 0.00 0.00 58 1022.6
20210722175703 18 354 16.1 22.5 0.00 0.00 0.00 58 1022.6
20210722175204 18 350 12.9 25.7 0.00 0.00 0.00 58 1022.6
20210722174703 18 18 14.5 25.7 0.00 0.00 0.00 60 1022.6
20210722174203 18 0 14.5 25.7 0.00 0.00 0.00 60 1022.6
20210722173703 18 7 16.1 27.4 0.00 0.00 0.00 61 1022.6
20210722173204 18 11 12.9 27.4 0.00 0.00 0.00 61 1022.6
20210722172703 18 345 16.1 27.4 0.00 0.00 0.00 61 1022.7
20210722172203 18 18 16.1 24.1 0.00 0.00 0.00 61 1022.7
20210722171703 17 4 14.5 24.1 0.00 0.00 0.00 64 1022.7
20210722171203 17 348 17.7 24.1 0.00 0.00 0.00 64 1022.7
20210722170824 17 9 14.5 20.9 0.00 0.00 0.00 65 1022.7
20210722170703 17 340 11.3 20.9 0.00 0.00 0.00 66 1022.7
20210722170204 17 9 14.5 20.9 0.00 0.00 0.00 65 1022.7
20210722165703 17 2 9.7 20.9 0.00 0.00 0.00 68 1022.8
20210722165203 17 347 9.7 16.1 0.00 0.00 0.00 68 1022.9
20210722164703 16 28 8.0 16.1 0.00 0.00 0.00 70 1022.9
20210722164203 16 8 9.7 16.1 0.00 0.00 0.00 70 1022.9
20210722163703 16 343 9.7 12.9 0.00 0.00 0.00 71 1022.8
20210722163204 16 2 4.8 6.4 0.00 0.00 0.00 74 1022.9